Torna al catalogo

STARLINK-5055

AttivoComunicazioniVLEO
NORAD 54015·PAYLOAD·🇺🇸 United States

Lanciato Oct 5, 2022 da Vandenberg Space Force Base

Loading…

Prossimi Passaggi (prossime 24 ore)

TLE

AggiornatoSource: CelesTrak SupGP

Epoca: Sep 14, 2026, 21:20 UTC

1 54015C 22125BD  26257.88937500  .01011800  00000+0  65710-3 0  2578
2 54015  53.2100  45.7252 0005593 330.1230 338.5653 16.16052933    17

Traccia STARLINK-5055 in tempo reale con AllMySat

Download on the App Store